Kremmling, CO

3:31 AM MDT on September 24, 2017 (GMT -0600)
Kremmling

Weather History for K20V - October, 2011

Change the Weather History Date:

Sunday, October 30, 2011

  Actual Average Record
Temperature  
Mean Temperature 28 °F -  
Max Temperature 41 °F - 66 °F (2008)
Min Temperature 14 °F - 14 °F (2011)
Degree Days  
Heating Degree Days 38    
Month to date heating degree days  
Cooling Degree Days 0    
Month to date cooling degree days  
Moisture  
Dew Point 21 °F    
Average Humidity 77    
Maximum Humidity 93    
Minimum Humidity 56    
Precipitation  
Precipitation 0.00 in - 0.32 in (2013)
Sea Level Pressure  
Sea Level Pressure 30.35 in    
Wind  
Wind Speed 0 mph (ESE)    
Max Wind Speed 5 mph    
Max Gust Speed -    
Visibility 8 miles    
Events Fog    
T = Trace of Precipitation, MM = Missing Value Source: NWS Daily Summary

Daily Weather History Graph

Daily Weather History Graph

Search for Another Location

Airport or City:

Trip Planner

Search our weather history database for the weather conditions in past years. The results will help you decide how hot, cold, wet, or windy it might be!

Date:

Astronomy

Oct. 30, 2011 Rise Set
Actual Time 7:32 AM MDT 6:05 PM MDT
Civil Twilight 7:04 AM MDT 6:33 PM MDT
Nautical Twilight 6:32 AM MDT 7:05 PM MDT
Astronomical Twilight 6:00 AM MDT 7:36 PM MDT
Moon 11:53 AM MDT (10/30) 9:37 PM MDT (10/30)
Length of Visible Light 11h 29m
Length of Day
10h 33m
Waxing Crescent, 20% of the Moon is Illuminated
Oct 30
Waxing Crescent
Nov 2
First Quarter
Nov 10
Full
Nov 18
Last Quarter
Nov 24
New

Hourly Weather History & Observations

Time (MDT) Temp. Windchill Dew Point Humidity Pressure Visibility Wind Dir Wind Speed Gust Speed Precip Events Conditions
12:06 AM 23.0 °F - 17.6 °F 80% 30.29 in 10.0 mi Calm Calm - N/A   Clear
12:26 AM 23.0 °F - 19.4 °F 86% 30.29 in 10.0 mi Calm Calm - N/A   Clear
12:46 AM 21.2 °F - 17.6 °F 86% 30.30 in 10.0 mi Calm Calm - N/A   Clear
1:06 AM 23.0 °F - 19.4 °F 86% 30.31 in 5.0 mi Calm Calm - N/A   Clear
1:26 AM 21.2 °F - 19.4 °F 93% 30.31 in 5.0 mi Calm Calm - N/A   Clear
1:46 AM 21.2 °F - 17.6 °F 86% 30.31 in 7.0 mi Calm Calm - N/A   Clear
2:06 AM 19.4 °F - 17.6 °F 93% 30.31 in 7.0 mi Calm Calm - N/A   Clear
2:26 AM 19.4 °F - 17.6 °F 93% 30.31 in 5.0 mi Calm Calm - N/A   Clear
2:46 AM 19.4 °F - 15.8 °F 86% 30.31 in 4.0 mi Calm Calm - N/A   Clear
3:05 AM 17.6 °F - 14.0 °F 86% 30.31 in 5.0 mi Calm Calm - N/A   Clear
3:26 AM 17.6 °F 10.7 °F 14.0 °F 86% 30.31 in 5.0 mi SE 4.6 mph - N/A   Clear
3:46 AM 17.6 °F - 12.2 °F 79% 30.31 in 5.0 mi Calm Calm - N/A   Clear
4:05 AM 17.6 °F - 14.0 °F 86% 30.32 in 7.0 mi Calm Calm - N/A   Clear
4:25 AM 14.0 °F - 10.4 °F 86% 30.32 in 5.0 mi Calm Calm - N/A   Scattered Clouds
5:05 AM 17.6 °F - 12.2 °F 79% 30.32 in 0.8 mi Calm Calm - N/A   Overcast
5:26 AM 17.6 °F - 14.0 °F 86% 30.33 in 0.2 mi Calm Calm - N/A Fog Light Freezing Fog
6:06 AM 17.6 °F - 14.0 °F 86% 30.34 in 0.2 mi Calm Calm - N/A Fog Light Freezing Fog
6:26 AM 17.6 °F - 12.2 °F 79% 30.34 in 0.2 mi Calm Calm - N/A Fog Light Freezing Fog
7:26 AM 15.8 °F - 12.2 °F 86% 30.36 in 0.2 mi Calm Calm - N/A Fog Light Freezing Fog
7:46 AM 17.6 °F 12.3 °F 12.2 °F 79% 30.36 in 0.2 mi East 3.5 mph - N/A   Haze
8:06 AM 17.6 °F - 14.0 °F 86% 30.37 in 0.2 mi Calm Calm - N/A Fog Light Freezing Fog
8:26 AM 15.8 °F - 12.2 °F 86% 30.39 in 0.2 mi Calm Calm - N/A Fog Light Freezing Fog
8:45 AM 17.6 °F - 14.0 °F 86% 30.40 in 0.2 mi Calm Calm - N/A Fog Light Freezing Fog
9:06 AM 19.4 °F - 17.6 °F 93% 30.41 in 7.0 mi Calm Calm - N/A   Scattered Clouds
9:26 AM 21.2 °F - 17.6 °F 86% 30.41 in 7.0 mi Calm Calm - N/A   Clear
9:45 AM 23.0 °F - 19.4 °F 86% 30.41 in 10.0 mi Calm Calm - N/A   Clear
10:06 AM 26.6 °F - 23.0 °F 86% 30.41 in 10.0 mi Calm Calm - N/A   Clear
10:26 AM 28.4 °F - 23.0 °F 80% 30.41 in 10.0 mi Calm Calm - N/A   Clear
10:46 AM 30.2 °F - 23.0 °F 75% 30.41 in 10.0 mi Calm Calm - N/A   Clear
11:06 AM 30.2 °F - 19.4 °F 64% 30.42 in 10.0 mi Calm Calm - N/A   Clear
11:26 AM 32.0 °F - 21.2 °F 64% 30.41 in 10.0 mi Calm Calm - N/A   Clear
11:46 AM 32.0 °F - 21.2 °F 64% 30.41 in 10.0 mi Calm Calm - N/A   Clear
12:06 PM 32.0 °F - 21.2 °F 64% 30.41 in 10.0 mi Calm Calm - N/A   Clear
12:25 PM 33.8 °F - 23.0 °F 65% 30.40 in 10.0 mi Calm Calm - N/A   Clear
12:46 PM 33.8 °F - 23.0 °F 65% 30.39 in 10.0 mi Calm Calm - N/A   Clear
1:06 PM 33.8 °F - 23.0 °F 65% 30.38 in 10.0 mi Calm Calm - N/A   Clear
1:26 PM 35.6 °F - 21.2 °F 56% 30.37 in 10.0 mi Calm Calm - N/A   Clear
1:46 PM 35.6 °F - 23.0 °F 60% 30.37 in 10.0 mi Calm Calm - N/A   Clear
2:06 PM 35.6 °F - 23.0 °F 60% 30.36 in 10.0 mi Calm Calm - N/A   Clear
2:26 PM 35.6 °F - 24.8 °F 65% 30.35 in 10.0 mi Calm Calm - N/A   Clear
2:46 PM 37.4 °F - 26.6 °F 65% 30.35 in 10.0 mi Calm Calm - N/A   Clear
3:06 PM 37.4 °F - 26.6 °F 65% 30.34 in 10.0 mi Calm Calm - N/A   Clear
3:26 PM 37.4 °F 34.9 °F 26.6 °F 65% 30.34 in 10.0 mi ESE 3.5 mph - N/A   Clear
3:46 PM 41.0 °F - 26.6 °F 57% 30.34 in 10.0 mi Calm Calm - N/A   Clear
4:06 PM 41.0 °F - 26.6 °F 57% 30.34 in 10.0 mi Calm Calm - N/A   Clear
4:26 PM 41.0 °F - 26.6 °F 57% 30.34 in 10.0 mi Calm Calm - N/A   Clear
5:06 PM 41.0 °F - 28.4 °F 61% 30.34 in 10.0 mi Calm Calm - N/A   Clear
5:26 PM 37.4 °F 34.9 °F 28.4 °F 70% 30.34 in 10.0 mi ESE 3.5 mph - N/A   Clear
5:45 PM 37.4 °F - 28.4 °F 70% 30.34 in 10.0 mi Calm Calm - N/A   Clear
6:06 PM 35.6 °F - 26.6 °F 70% 30.34 in 10.0 mi Calm Calm - N/A   Clear
6:26 PM 33.8 °F - 28.4 °F 81% 30.34 in 10.0 mi Calm Calm - N/A   Clear
6:46 PM 32.0 °F - 26.6 °F 80% 30.35 in 10.0 mi Calm Calm - N/A   Clear
7:06 PM 32.0 °F - 26.6 °F 80% 30.36 in 10.0 mi Calm Calm - N/A   Clear
7:26 PM 32.0 °F - 26.6 °F 80% 30.36 in 10.0 mi Calm Calm - N/A   Clear
7:45 PM 30.2 °F - 24.8 °F 80% 30.36 in 10.0 mi Calm Calm - N/A   Clear
8:05 PM 30.2 °F - 26.6 °F 86% 30.36 in 10.0 mi Calm Calm - N/A   Clear
8:26 PM 30.2 °F - 26.6 °F 86% 30.36 in 10.0 mi Calm Calm - N/A   Clear
8:46 PM 30.2 °F - 26.6 °F 86% 30.37 in 10.0 mi Calm Calm - N/A   Clear
9:06 PM 28.4 °F - 23.0 °F 80% 30.37 in 10.0 mi Calm Calm - N/A   Clear
9:26 PM 28.4 °F - 24.8 °F 86% 30.37 in 5.0 mi Calm Calm - N/A   Clear
9:46 PM 28.4 °F - 26.6 °F 93% 30.38 in 7.0 mi Calm Calm - N/A   Clear
10:06 PM 28.4 °F - 23.0 °F 80% 30.38 in 7.0 mi Calm Calm - N/A   Clear
10:26 PM 24.8 °F - 21.2 °F 86% 30.38 in 7.0 mi Calm Calm - N/A   Clear
10:45 PM 24.8 °F - 21.2 °F 86% 30.38 in 7.0 mi Calm Calm - N/A   Clear
11:06 PM 28.4 °F - 23.0 °F 80% 30.38 in 5.0 mi Calm Calm - N/A   Clear
11:26 PM 24.8 °F - 21.2 °F 86% 30.37 in 7.0 mi Calm Calm - N/A   Clear
11:46 PM 23.0 °F - 21.2 °F 93% 30.37 in 4.0 mi Calm Calm - N/A   Clear